QPF
0.03 0.03 0.02 0.01 0.01 0.01 0.01 0.02 0.02 0.01 0.02 0.03 0.04 0.05 0.05 0.07 0.13 0.11 0.03 0.03 0.04 0.04 0.05 0.03 0.02 0.02 0.03 0.04 0.04 0.05 0.05 0.06 0.05 0.04 0.04 0.04 0.05 0.05
0.01 0.02 0.02 0.02 0.01 0.01 0.01 0.01 0.02 0.01 0.02 0.04 0.04 0.07 0.08 0.11 0.11 0.08 0.04 0.03 0.03 0.03 0.04 0.04 0.03 0.03 0.03 0.03 0.04 0.05 0.04 0.05 0.03 0.03 0.03 0.04 0.04 0.04
0.01 0.01 0.02 0.02 0.02 0.02 0.02 0.02 0.03 0.02 0.03 0.04 0.04 0.06 0.08 0.08 0.06 0.05 0.03 0.03 0.03 0.04 0.04 0.06 0.05 0.04 0.04 0.04 0.03 0.04 0.04 0.05 0.04 0.03 0.04 0.04 0.04 0.04
0.02 0.02 0.02 0.02 0.02 0.02 0.03 0.03 0.03 0.03 0.03 0.03 0.04 0.05 0.08 0.07 0.05 0.05 0.05 0.04 0.04 0.05 0.06 0.05 0.05 0.04 0.04 0.06 0.05 0.04 0.04 0.04 0.04 0.04 0.04 0.04 0.03 0.03
0.01 0.02 0.02 0.02 0.02 0.03 0.03 0.04 0.04 0.03 0.03 0.03 0.04 0.05 0.05 0.05 0.05 0.05 0.06 0.06 0.05 0.05 0.06 0.06 0.07 0.06 0.05 0.06 0.06 0.05 0.05 0.04 0.03 0.03 0.03 0.03 0.02 0.03
0.01 0.02 0.02 0.02 0.02 0.02 0.02 0.03 0.04 0.04 0.04 0.04 0.05 0.05 0.04 0.04 0.05 0.05 0.05 0.05 0.05 0.05 0.07 0.07 0.08 0.07 0.05 0.05 0.06 0.05 0.05 0.05 0.04 0.03 0.03 0.02 0.03 0.03
0.01 0.01 0.02 0.02 0.03 0.03 0.03 0.03 0.03 0.04 0.04 0.04 0.05 0.05 0.04 0.04 0.05 0.07 0.04 0.04 0.05 0.06 0.06 0.06 0.05 0.04 0.04 0.04 0.05 0.05 0.06 0.06 0.05 0.04 0.03 0.03 0.03 0.03
0.01 0.01 0.02 0.02 0.02 0.02 0.03 0.04 0.03 0.04 0.04 0.04 0.04 0.05 0.05 0.05 0.07 0.07 0.04 0.03 0.05 0.06 0.06 0.04 0.03 0.03 0.03 0.02 0.04 0.05 0.06 0.07 0.06 0.05 0.04 0.03 0.03 0.03
0.01 0.01 0.01 0.01 0.02 0.02 0.03 0.03 0.04 0.04 0.05 0.05 0.04 0.04 0.03 0.04 0.05 0.05 0.05 0.04 0.05 0.05 0.05 0.04 0.03 0.03 0.03 0.04 0.05 0.04 0.04 0.05 0.07 0.06 0.05 0.03 0.02 0.02
0.01 0.01 0.01 0.01 0.02 0.02 0.02 0.02 0.02 0.02 0.03 0.04 0.04 0.03 0.03 0.03 0.03 0.04 0.04 0.04 0.03 0.03 0.05 0.06 0.04 0.03 0.03 0.04 0.05 0.06 0.04 0.04 0.07 0.08 0.06 0.04 0.03 0.02
0.02 0.02 0.01 0.01 0.01 0.02 0.02 0.01 0.01 0.01 0.01 0.02 0.03 0.03 0.03 0.02 0.02 0.02 0.02 0.02 0.02 0.02 0.02 0.04 0.05 0.04 0.03 0.03 0.04 0.06 0.06 0.06 0.07 0.07 0.06 0.04 0.04 0.03
0.01 0.02 0.02 0.02 0.02 0.02 0.02 0.01 0.01 0.01 0.01 0.02 0.03 0.03 0.02 0.01 0.01 0.01 0.01 0.01 0.01 0.01 0.01 0.02 0.03 0.04 0.04 0.04 0.04 0.03 0.04 0.07 0.08 0.08 0.06 0.05 0.04 0.03
0.02 0.02 0.03 0.03 0.02 0.02 0.02 0.01 0.02 0.02 0.02 0.02 0.02 0.03 0.03 0.01 0.01 0.01 0.01 0.01 0.01 0.01 0.01 0.02 0.03 0.03 0.03 0.04 0.04 0.03 0.02 0.03 0.05 0.07 0.07 0.06 0.05 0.04
0.02 0.02 0.02 0.03 0.03 0.02 0.02 0.01 0.02 0.02 0.02 0.02 0.02 0.03 0.03 0.03 0.02 0.01 0.01 0.01 0.01 0.01 0.03 0.02 0.03 0.04 0.03 0.04 0.06 0.06 0.03 0.02 0.03 0.03 0.05 0.07 0.06 0.04
0.02 0.02 0.02 0.02 0.02 0.01 0.01 0.01 0.02 0.01 0.02 0.03 0.03 0.02 0.02 0.03 0.03 0.02 0.01 0.01 0.01 0.01 0.01 0.02 0.02 0.05 0.04 0.04 0.06 0.08 0.06 0.04 0.02 0.02 0.03 0.04 0.04 0.04
0.02 0.02 0.02 0.02 0.01 0.01 0.01 0.01 0.01 0.01 0.01 0.01 0.02 0.02 0.02 0.02 0.03 0.05 0.03 0.02 0.03 0.03 0.01 0.03 0.04 0.05 0.05 0.04 0.05 0.06 0.08 0.07 0.04 0.03 0.03 0.03 0.03 0.03
0.03 0.02 0.02 0.01 0.01 0.01 0.00 0.00 0.00 0.00 0.01 0.01 0.01 0.01 0.01 0.02 0.03 0.03 0.03 0.03 0.02 0.02 0.02 0.02 0.03 0.05 0.06 0.05 0.05 0.05 0.06 0.09 0.06 0.05 0.04 0.03 0.03 0.02
0.03 0.02 0.01 0.01 0.01 0.01 0.01 0.01 0.01 0.01 0.01 0.01 0.01 0.02 0.02 0.03 0.03 0.04 0.04 0.03 0.02 0.02 0.01 0.01 0.03 0.05 0.06 0.06 0.05 0.04 0.04 0.06 0.07 0.06 0.05 0.05 0.04 0.03
0.03 0.02 0.02 0.02 0.02 0.02 0.02 0.02 0.02 0.02 0.02 0.01 0.01 0.01 0.01 0.02 0.02 0.04 0.05 0.04 0.03 0.03 0.03 0.02 0.03 0.04 0.04 0.04 0.04 0.03 0.03 0.04 0.06 0.06 0.06 0.05 0.05 0.04
0.03 0.03 0.03 0.02 0.02 0.02 0.02 0.02 0.02 0.02 0.02 0.02 0.02 0.01 0.01 0.01 0.02 0.02 0.03 0.03 0.03 0.03 0.04 0.04 0.05 0.05 0.05 0.04 0.04 0.03 0.02 0.03 0.04 0.04 0.05 0.05 0.05 0.05
0.03 0.04 0.04 0.03 0.03 0.03 0.03 0.03 0.03 0.02 0.02 0.02 0.01 0.01 0.01 0.01 0.01 0.01 0.01 0.03 0.04 0.04 0.04 0.05 0.06 0.06 0.06 0.05 0.05 0.05 0.05 0.04 0.05 0.04 0.04 0.06 0.07 0.06
0.03 0.03 0.03 0.03 0.03 0.03 0.03 0.03 0.03 0.02 0.02 0.02 0.02 0.01 0.01 0.01 0.01 0.01 0.01 0.02 0.03 0.04 0.03 0.04 0.04 0.04 0.04 0.04 0.04 0.04 0.05 0.06 0.07 0.08 0.06 0.05 0.07 0.08
0.03 0.03 0.03 0.03 0.03 0.03 0.03 0.03 0.02 0.02 0.02 0.02 0.02 0.02 0.01 0.01 0.02 0.01 0.01 0.01 0.02 0.03 0.03 0.03 0.03 0.03 0.04 0.04 0.03 0.03 0.03 0.03 0.03 0.05 0.06 0.04 0.04 0.06
MSLP
1017.14 1017.38 1017.65 1017.92 1018.18 1018.39 1018.54 1018.62 1018.66 1018.64 1018.60 1018.53 1018.46 1018.36 1018.24 1018.06 1017.80 1017.46 1017.01 1016.46 1015.82 1015.13 1014.40 1013.69 1013.04 1012.49 1012.07 1011.82 1011.76 1011.89 1012.20 1012.70 1013.33 1014.08 1014.90 1015.76 1016.60 1017.40
1016.66 1016.84 1017.03 1017.24 1017.44 1017.62 1017.77 1017.89 1017.99 1018.06 1018.12 1018.17 1018.19 1018.18 1018.11 1017.96 1017.71 1017.33 1016.82 1016.20 1015.48 1014.69 1013.88 1013.10 1012.39 1011.79 1011.34 1011.06 1010.99 1011.13 1011.46 1011.97 1012.64 1013.42 1014.29 1015.19 1016.09 1016.94
1016.20 1016.30 1016.41 1016.54 1016.68 1016.81 1016.96 1017.10 1017.26 1017.43 1017.60 1017.77 1017.92 1018.02 1018.03 1017.93 1017.70 1017.31 1016.78 1016.10 1015.32 1014.46 1013.59 1012.75 1011.98 1011.33 1010.85 1010.55 1010.46 1010.58 1010.91 1011.42 1012.09 1012.90 1013.78 1014.71 1015.64 1016.53
1015.76 1015.79 1015.82 1015.86 1015.92 1016.01 1016.13 1016.30 1016.51 1016.76 1017.04 1017.33 1017.60 1017.81 1017.92 1017.90 1017.72 1017.36 1016.83 1016.15 1015.34 1014.45 1013.55 1012.66 1011.86 1011.18 1010.67 1010.34 1010.22 1010.31 1010.61 1011.10 1011.76 1012.55 1013.43 1014.36 1015.31 1016.22
1015.37 1015.32 1015.27 1015.22 1015.21 1015.24 1015.33 1015.49 1015.73 1016.04 1016.40 1016.79 1017.17 1017.49 1017.72 1017.79 1017.69 1017.40 1016.92 1016.27 1015.49 1014.62 1013.72 1012.84 1012.04 1011.34 1010.80 1010.45 1010.29 1010.34 1010.60 1011.04 1011.65 1012.40 1013.25 1014.17 1015.10 1016.01
1015.01 1014.89 1014.76 1014.64 1014.55 1014.52 1014.56 1014.69 1014.92 1015.25 1015.66 1016.12 1016.58 1017.00 1017.32 1017.51 1017.52 1017.33 1016.95 1016.40 1015.70 1014.90 1014.06 1013.23 1012.45 1011.77 1011.23 1010.86 1010.67 1010.67 1010.86 1011.24 1011.78 1012.46 1013.26 1014.13 1015.03 1015.92
1014.70 1014.52 1014.32 1014.12 1013.95 1013.84 1013.82 1013.89 1014.09 1014.40 1014.81 1015.29 1015.80 1016.29 1016.71 1017.00 1017.13 1017.08 1016.84 1016.43 1015.87 1015.20 1014.48 1013.74 1013.04 1012.41 1011.89 1011.51 1011.28 1011.23 1011.36 1011.66 1012.12 1012.72 1013.44 1014.23 1015.08 1015.92
1014.42 1014.19 1013.93 1013.66 1013.42 1013.23 1013.12 1013.12 1013.24 1013.49 1013.86 1014.32 1014.84 1015.37 1015.86 1016.25 1016.51 1016.61 1016.55 1016.32 1015.94 1015.45 1014.88 1014.28 1013.69 1013.14 1012.67 1012.31 1012.07 1011.98 1012.04 1012.26 1012.63 1013.14 1013.76 1014.47 1015.24 1016.02
1014.19 1013.91 1013.60 1013.28 1012.96 1012.69 1012.49 1012.39 1012.42 1012.58 1012.87 1013.28 1013.77 1014.30 1014.83 1015.31 1015.69 1015.94 1016.06 1016.02 1015.85 1015.56 1015.19 1014.76 1014.31 1013.88 1013.48 1013.16 1012.93 1012.82 1012.84 1012.98 1013.27 1013.68 1014.20 1014.81 1015.48 1016.17
1014.01 1013.70 1013.35 1012.97 1012.60 1012.25 1011.96 1011.76 1011.67 1011.72 1011.91 1012.24 1012.67 1013.18 1013.72 1014.25 1014.72 1015.11 1015.39 1015.55 1015.58 1015.50 1015.33 1015.09 1014.80 1014.50 1014.21 1013.96 1013.76 1013.65 1013.64 1013.74 1013.95 1014.28 1014.71 1015.21 1015.78 1016.37
1013.89 1013.55 1013.17 1012.76 1012.33 1011.92 1011.55 1011.25 1011.06 1011.00 1011.08 1011.31 1011.66 1012.11 1012.63 1013.17 1013.70 1014.19 1014.60 1014.91 1015.12 1015.23 1015.24 1015.18 1015.06 1014.91 1014.74 1014.57 1014.44 1014.37 1014.36 1014.43 1014.60 1014.86 1015.20 1015.61 1016.07 1016.56
1013.83 1013.48 1013.08 1012.64 1012.18 1011.72 1011.28 1010.91 1010.64 1010.48 1010.45 1010.57 1010.83 1011.20 1011.67 1012.19 1012.72 1013.25 1013.73 1014.15 1014.48 1014.73 1014.90 1015.00 1015.03 1015.01 1014.97 1014.91 1014.87 1014.85 1014.87 1014.95 1015.10 1015.31 1015.59 1015.91 1016.28 1016.66
1013.83 1013.47 1013.06 1012.61 1012.12 1011.64 1011.17 1010.75 1010.40 1010.17 1010.05 1010.08 1010.24 1010.52 1010.90 1011.35 1011.85 1012.35 1012.84 1013.29 1013.69 1014.02 1014.29 1014.50 1014.66 1014.77 1014.84 1014.90 1014.95 1015.01 1015.09 1015.20 1015.35 1015.54 1015.77 1016.03 1016.31 1016.60
1013.88 1013.51 1013.09 1012.64 1012.16 1011.66 1011.18 1010.74 1010.36 1010.07 1009.89 1009.83 1009.90 1010.08 1010.36 1010.71 1011.11 1011.54 1011.97 1012.39 1012.78 1013.14 1013.45 1013.72 1013.96 1014.16 1014.34 1014.50 1014.65 1014.79 1014.94 1015.10 1015.27 1015.46 1015.67 1015.88 1016.10 1016.31
1013.93 1013.56 1013.15 1012.71 1012.24 1011.76 1011.28 1010.85 1010.46 1010.15 1009.93 1009.81 1009.79 1009.87 1010.03 1010.26 1010.54 1010.85 1011.17 1011.50 1011.82 1012.13 1012.43 1012.71 1012.99 1013.25 1013.50 1013.75 1013.98 1014.21 1014.42 1014.64 1014.84 1015.04 1015.24 1015.42 1015.59 1015.74
1013.98 1013.62 1013.22 1012.79 1012.34 1011.89 1011.45 1011.04 1010.68 1010.37 1010.13 1009.97 1009.88 1009.87 1009.91 1010.01 1010.14 1010.30 1010.47 1010.67 1010.87 1011.10 1011.33 1011.59 1011.86 1012.14 1012.44 1012.74 1013.04 1013.33 1013.60 1013.86 1014.09 1014.31 1014.50 1014.66 1014.79 1014.90
1014.01 1013.65 1013.27 1012.87 1012.45 1012.04 1011.65 1011.28 1010.95 1010.67 1010.44 1010.25 1010.12 1010.03 1009.96 1009.93 1009.92 1009.92 1009.94 1009.98 1010.05 1010.16 1010.31 1010.50 1010.74 1011.01 1011.32 1011.64 1011.97 1012.29 1012.60 1012.89 1013.14 1013.35 1013.53 1013.68 1013.79 1013.88
1014.01 1013.67 1013.31 1012.94 1012.57 1012.20 1011.86 1011.55 1011.27 1011.02 1010.81 1010.62 1010.46 1010.31 1010.16 1010.02 1009.88 1009.74 1009.62 1009.52 1009.47 1009.46 1009.51 1009.63 1009.80 1010.04 1010.32 1010.64 1010.97 1011.30 1011.61 1011.89 1012.14 1012.34 1012.51 1012.64 1012.73 1012.80
1014.00 1013.68 1013.35 1013.02 1012.69 1012.38 1012.09 1011.83 1011.60 1011.40 1011.22 1011.05 1010.87 1010.69 1010.49 1010.27 1010.04 1009.79 1009.56 1009.35 1009.19 1009.08 1009.05 1009.09 1009.21 1009.40 1009.64 1009.92 1010.22 1010.52 1010.80 1011.06 1011.28 1011.45 1011.59 1011.70 1011.77 1011.82
1013.98 1013.70 1013.41 1013.12 1012.84 1012.58 1012.35 1012.15 1011.97 1011.81 1011.66 1011.51 1011.34 1011.15 1010.92 1010.66 1010.37 1010.07 1009.77 1009.49 1009.26 1009.09 1009.00 1008.98 1009.04 1009.18 1009.37 1009.60 1009.85 1010.10 1010.33 1010.54 1010.71 1010.84 1010.94 1011.01 1011.06 1011.10
1013.96 1013.74 1013.50 1013.26 1013.03 1012.82 1012.64 1012.48 1012.35 1012.24 1012.12 1012.00 1011.84 1011.66 1011.43 1011.16 1010.86 1010.54 1010.22 1009.92 1009.66 1009.47 1009.34 1009.30 1009.32 1009.41 1009.56 1009.73 1009.92 1010.10 1010.27 1010.41 1010.52 1010.59 1010.64 1010.67 1010.69 1010.70
1013.95 1013.78 1013.60 1013.42 1013.25 1013.09 1012.96 1012.84 1012.75 1012.67 1012.59 1012.49 1012.36 1012.19 1011.98 1011.73 1011.45 1011.15 1010.85 1010.57 1010.33 1010.14 1010.02 1009.96 1009.97 1010.04 1010.14 1010.26 1010.38 1010.50 1010.59 1010.66 1010.70 1010.72 1010.72 1010.70 1010.68 1010.67
1013.92 1013.82 1013.71 1013.58 1013.46 1013.36 1013.27 1013.20 1013.14 1013.09 1013.03 1012.96 1012.86 1012.72 1012.54 1012.32 1012.08 1011.82 1011.57 1011.34 1011.14 1010.99 1010.90 1010.86 1010.87 1010.91 1010.98 1011.06 1011.13 1011.18 1011.21 1011.21 1011.19 1011.15 1011.09 1011.03 1010.97 1010.92
Thickness
5634 5634 5634 5634 5634 5633 5632 5631 5627 5623 5623 5627 5629 5633 5635 5637 5639 5642 5643 5645 5646 5646 5647 5648 5649 5649 5650 5650 5650 5650 5649 5649 5648 5648 5648 5648 5648 5648
5628 5628 5627 5628 5628 5628 5627 5626 5625 5622 5619 5620 5623 5626 5628 5631 5633 5635 5637 5638 5639 5640 5641 5641 5642 5643 5643 5642 5642 5642 5642 5641 5642 5642 5641 5641 5641 5641
5621 5621 5621 5621 5621 5621 5620 5620 5618 5617 5614 5614 5617 5619 5622 5624 5626 5628 5630 5631 5632 5633 5634 5634 5635 5635 5635 5635 5635 5635 5635 5634 5634 5634 5634 5634 5634 5634
5614 5615 5614 5615 5614 5614 5613 5612 5612 5611 5610 5608 5609 5611 5614 5616 5619 5620 5622 5623 5624 5626 5627 5627 5628 5628 5628 5628 5628 5628 5628 5627 5627 5627 5627 5626 5626 5626
5608 5608 5608 5608 5607 5607 5607 5606 5605 5606 5604 5603 5603 5604 5606 5608 5610 5612 5614 5615 5617 5618 5619 5619 5620 5620 5620 5620 5620 5620 5620 5620 5620 5619 5619 5619 5619 5619
5603 5603 5602 5602 5601 5601 5601 5600 5599 5598 5596 5596 5595 5596 5597 5599 5600 5601 5603 5605 5607 5609 5610 5611 5611 5612 5612 5613 5613 5613 5613 5612 5612 5612 5612 5611 5611 5611
5596 5597 5597 5598 5597 5596 5596 5594 5593 5591 5589 5588 5587 5587 5588 5589 5590 5592 5593 5595 5597 5600 5601 5602 5603 5604 5604 5605 5605 5606 5606 5605 5605 5604 5604 5604 5603 5604
5589 5590 5591 5591 5591 5591 5591 5590 5588 5586 5583 5581 5580 5579 5581 5582 5582 5584 5583 5584 5586 5590 5591 5592 5594 5594 5596 5597 5598 5598 5598 5597 5597 5597 5596 5596 5596 5596
5582 5582 5583 5584 5583 5583 5583 5582 5581 5581 5580 5577 5575 5574 5575 5576 5576 5575 5575 5575 5577 5581 5582 5583 5584 5585 5587 5588 5590 5590 5590 5590 5590 5589 5589 5589 5590 5590
5575 5575 5574 5574 5576 5575 5574 5572 5572 5572 5572 5571 5570 5570 5570 5570 5570 5570 5569 5569 5569 5572 5574 5573 5575 5576 5579 5580 5581 5582 5582 5583 5582 5582 5582 5583 5583 5583
5568 5567 5567 5567 5568 5567 5565 5563 5562 5562 5563 5563 5563 5563 5563 5563 5562 5560 5559 5559 5559 5562 5564 5564 5566 5567 5570 5571 5573 5573 5574 5575 5575 5575 5575 5576 5576 5576
5560 5559 5560 5560 5560 5559 5556 5554 5552 5552 5553 5553 5553 5553 5553 5553 5552 5552 5552 5551 5551 5552 5555 5556 5557 5558 5559 5562 5564 5565 5566 5567 5568 5568 5569 5569 5569 5570
5551 5550 5551 5552 5552 5550 5549 5547 5546 5546 5544 5543 5542 5542 5542 5542 5542 5543 5544 5545 5545 5546 5549 5549 5549 5549 5550 5552 5554 5556 5557 5559 5559 5560 5561 5562 5562 5563
5544 5543 5543 5544 5543 5542 5541 5540 5539 5537 5534 5532 5531 5531 5531 5532 5533 5535 5536 5537 5539 5541 5542 5542 5542 5542 5542 5543 5544 5547 5548 5550 5552 5553 5554 5554 5555 5555
5537 5536 5535 5535 5534 5532 5532 5531 5529 5526 5524 5522 5521 5521 5522 5523 5524 5525 5527 5529 5530 5532 5534 5535 5536 5536 5536 5536 5537 5538 5539 5542 5543 5544 5546 5546 5547 5548
5529 5528 5527 5525 5523 5522 5521 5520 5518 5517 5515 5514 5513 5512 5512 5513 5514 5516 5517 5519 5520 5522 5525 5527 5528 5529 5529 5529 5529 5530 5532 5533 5535 5537 5538 5539 5541 5542
5521 5518 5515 5513 5511 5510 5509 5508 5507 5507 5506 5505 5504 5503 5503 5504 5505 5507 5507 5509 5509 5511 5514 5517 5519 5520 5522 5522 5521 5523 5524 5525 5527 5529 5530 5531 5533 5535
5512 5509 5506 5504 5502 5500 5498 5497 5497 5496 5496 5495 5494 5494 5495 5495 5496 5497 5498 5499 5500 5502 5503 5506 5508 5509 5510 5513 5515 5516 5516 5517 5519 5521 5522 5523 5525 5528
5503 5500 5498 5495 5493 5491 5489 5488 5488 5487 5486 5486 5485 5485 5486 5486 5487 5487 5488 5489 5490 5492 5493 5495 5497 5498 5500 5502 5505 5507 5508 5510 5511 5512 5514 5516 5518 5521
5493 5491 5489 5487 5484 5482 5481 5480 5479 5478 5478 5477 5476 5476 5476 5477 5477 5477 5477 5479 5480 5482 5483 5485 5487 5490 5492 5494 5495 5497 5500 5502 5503 5505 5506 5508 5511 5514
5483 5481 5480 5478 5476 5474 5472 5471 5471 5470 5469 5468 5467 5467 5467 5467 5467 5467 5467 5469 5470 5472 5474 5476 5478 5481 5483 5485 5485 5488 5491 5493 5495 5496 5498 5500 5502 5505
5475 5473 5471 5470 5468 5466 5464 5463 5462 5461 5460 5459 5458 5458 5458 5458 5458 5458 5458 5458 5459 5461 5463 5465 5468 5470 5473 5475 5476 5478 5481 5484 5487 5489 5491 5493 5495 5497
5467 5466 5464 5462 5461 5459 5457 5455 5454 5453 5452 5451 5450 5449 5449 5448 5448 5448 5448 5449 5450 5451 5453 5454 5456 5459 5461 5464 5466 5468 5472 5475 5477 5480 5483 5486 5489 5492